Location: Passau
(48.5721°N, 13.4363°E)
Time: 04:47:49
(UTC+01:00)

ISS - Pass Details

Date: 09 January 2018
Orbit: 402 x 407 km, 51.6° (Epoch: 18 January)

Event Time Altitude Azimuth Distance (km) Brightness Sun altitude
Exits shadow 05:48:47 54° 23° (NNE) 503 -3.4 -20.3°
Drops below altitude 10° 05:51:53 10° 90° (E) 1,468 0.2 -19.8°
Sets 05:54:00 0° 95° (E) 2,328 1.6 -19.5°
